Wetterdaten: Freitag, 05.02.2016
Datum Zeit Auen-Temp. Temp gefhlt Luftfeuchte Luftdruck Regen Wind Richtung Richtung Taupunkt Windben
05.02.2016 00:00 1,4 C 0,4 C 89 % 1022,7 hPa 0,0 mm 15,8 km/h (3 Bft) W 270 -0,2 C 21,5 km/h (4 Bft)
05.02.2016 00:05 1,4 C 0,5 C 89 % 1022,7 hPa 0,0 mm 15,3 km/h (3 Bft) W 270 -0,2 C 21,8 km/h (4 Bft)
05.02.2016 00:10 1,5 C 0,6 C 89 % 1022,7 hPa 0,0 mm 14,8 km/h (3 Bft) W 270 -0,1 C 25,9 km/h (4 Bft)
05.02.2016 00:15 1,5 C 0,5 C 89 % 1022,7 hPa 0,0 mm 16,6 km/h (3 Bft) W-SW 247 -0,1 C 17,1 km/h (3 Bft)
05.02.2016 00:20 1,5 C 0,5 C 89 % 1022,7 hPa 0,0 mm 17,1 km/h (3 Bft) NW 315 -0,1 C 21,5 km/h (4 Bft)
05.02.2016 00:25 1,5 C 0,5 C 89 % 1022,7 hPa 0,7 mm 14,5 km/h (3 Bft) W 270 -0,1 C 38,8 km/h (5 Bft)
05.02.2016 00:30 1,6 C 0,7 C 89 % 1022,7 hPa 0,0 mm 13,7 km/h (3 Bft) W 270 -0,0 C 11,9 km/h (2 Bft)
05.02.2016 00:35 1,6 C 0,7 C 89 % 1022,7 hPa 0,0 mm 14,2 km/h (3 Bft) W 270 -0,0 C 14,8 km/h (3 Bft)
05.02.2016 00:40 1,6 C 0,7 C 89 % 1022,7 hPa 0,0 mm 15,5 km/h (3 Bft) NW 315 -0,0 C 23,0 km/h (4 Bft)
05.02.2016 00:45 1,6 C 0,7 C 88 % 1022,9 hPa 0,0 mm 15,0 km/h (3 Bft) W 270 -0,2 C 22,8 km/h (4 Bft)
05.02.2016 00:50 1,6 C 0,7 C 88 % 1022,9 hPa 0,0 mm 12,9 km/h (3 Bft) SW 225 -0,2 C 29,5 km/h (5 Bft)
05.02.2016 00:55 1,7 C 0,8 C 88 % 1022,9 hPa 0,0 mm 13,2 km/h (3 Bft) W 270 -0,1 C 17,1 km/h (3 Bft)
05.02.2016 01:00 1,7 C 0,8 C 88 % 1022,9 hPa 0,0 mm 15,0 km/h (3 Bft) W 270 -0,1 C 12,7 km/h (3 Bft)
05.02.2016 01:05 1,7 C 0,8 C 87 % 1023,3 hPa 0,0 mm 14,2 km/h (3 Bft) W-NW 292 -0,2 C 21,0 km/h (4 Bft)
05.02.2016 01:10 1,7 C 0,9 C 87 % 1023,3 hPa 0,0 mm 13,5 km/h (3 Bft) SW 225 -0,2 C 18,1 km/h (3 Bft)
05.02.2016 01:15 1,8 C 1,0 C 87 % 1023,3 hPa 0,0 mm 15,3 km/h (3 Bft) W 270 -0,1 C 16,1 km/h (3 Bft)
05.02.2016 01:20 1,7 C 0,5 C 86 % 1023,3 hPa 0,0 mm 15,0 km/h (3 Bft) W-NW 292 -0,4 C 15,3 km/h (3 Bft)
05.02.2016 01:25 1,7 C 0,8 C 86 % 1023,8 hPa 0,0 mm 16,1 km/h (3 Bft) W-NW 292 -0,4 C 16,8 km/h (3 Bft)
05.02.2016 01:30 1,6 C 0,8 C 86 % 1023,8 hPa 0,0 mm 15,0 km/h (3 Bft) N-NO 22 -0,5 C 15,5 km/h (3 Bft)
05.02.2016 01:35 1,5 C 0,6 C 87 % 1023,8 hPa 0,0 mm 11,7 km/h (2 Bft) NW 315 -0,4 C 14,5 km/h (3 Bft)
05.02.2016 01:40 1,4 C 0,5 C 87 % 1023,8 hPa 0,0 mm 10,1 km/h (2 Bft) W 270 -0,5 C 19,9 km/h (4 Bft)
05.02.2016 01:45 1,4 C 0,4 C 87 % 1023,7 hPa 0,0 mm 11,9 km/h (2 Bft) W 270 -0,5 C 25,6 km/h (4 Bft)
05.02.2016 01:50 1,4 C 0,3 C 88 % 1023,7 hPa 0,0 mm 12,2 km/h (2 Bft) W-SW 247 -0,4 C 16,1 km/h (3 Bft)
05.02.2016 01:55 1,3 C 0,3 C 88 % 1023,7 hPa 0,0 mm 11,1 km/h (2 Bft) W 270 -0,5 C 22,5 km/h (4 Bft)
05.02.2016 02:00 1,3 C 0,5 C 88 % 1023,7 hPa 0,0 mm 12,4 km/h (3 Bft) W-SW 247 -0,5 C 18,9 km/h (3 Bft)
05.02.2016 02:05 1,3 C 0,5 C 88 % 1023,8 hPa 0,0 mm 12,9 km/h (3 Bft) W 270 -0,5 C 19,4 km/h (3 Bft)
05.02.2016 02:10 1,3 C 0,4 C 89 % 1023,8 hPa 0,0 mm 13,5 km/h (3 Bft) W-SW 247 -0,3 C 15,0 km/h (3 Bft)
05.02.2016 02:15 1,4 C 0,5 C 89 % 1023,8 hPa 0,7 mm 13,5 km/h (3 Bft) W-SW 247 -0,2 C 17,3 km/h (3 Bft)
05.02.2016 02:20 1,4 C 0,5 C 89 % 1023,8 hPa 0,0 mm 14,0 km/h (3 Bft) W 270 -0,2 C 14,5 km/h (3 Bft)
05.02.2016 02:25 1,4 C 0,5 C 89 % 1023,8 hPa 0,0 mm 12,7 km/h (3 Bft) W-SW 247 -0,2 C 14,8 km/h (3 Bft)
05.02.2016 02:30 1,5 C 0,4 C 89 % 1023,8 hPa 0,0 mm 11,9 km/h (2 Bft) S 180 -0,1 C 21,5 km/h (4 Bft)
05.02.2016 02:35 1,5 C 0,4 C 89 % 1023,8 hPa 0,0 mm 12,2 km/h (2 Bft) W-NW 292 -0,1 C 12,2 km/h (2 Bft)
05.02.2016 02:40 1,5 C 0,4 C 89 % 1023,8 hPa 0,0 mm 12,4 km/h (3 Bft) W-SW 247 -0,1 C 7,8 km/h (2 Bft)
05.02.2016 02:45 1,7 C 0,8 C 89 % 1024,1 hPa 0,0 mm 13,2 km/h (3 Bft) W-SW 247 0,1 C 8,5 km/h (2 Bft)
05.02.2016 02:50 1,7 C 0,8 C 89 % 1024,1 hPa 0,0 mm 14,2 km/h (3 Bft) SW 225 0,1 C 12,4 km/h (3 Bft)
05.02.2016 02:55 1,6 C 0,8 C 88 % 1024,1 hPa 0,0 mm 13,2 km/h (3 Bft) W-NW 292 -0,2 C 21,8 km/h (4 Bft)
05.02.2016 03:00 1,7 C 0,7 C 88 % 1024,1 hPa 0,0 mm 12,2 km/h (2 Bft) W-SW 247 -0,1 C 11,9 km/h (2 Bft)
05.02.2016 03:05 1,7 C 0,7 C 88 % 1024,1 hPa 0,0 mm 11,9 km/h (2 Bft) W 270 -0,1 C 15,5 km/h (3 Bft)
05.02.2016 03:10 1,6 C 0,8 C 88 % 1024,1 hPa 0,0 mm 10,4 km/h (2 Bft) W 270 -0,2 C 19,2 km/h (3 Bft)
05.02.2016 03:15 1,7 C 0,8 C 88 % 1024,1 hPa 0,0 mm 10,9 km/h (2 Bft) SO 135 -0,1 C 8,3 km/h (2 Bft)
05.02.2016 03:20 1,7 C 1,0 C 88 % 1024,1 hPa 0,0 mm 12,7 km/h (3 Bft) W-NW 292 -0,1 C 23,3 km/h (4 Bft)
05.02.2016 03:25 1,7 C 0,7 C 88 % 1024,1 hPa 0,0 mm 13,2 km/h (3 Bft) W-NW 292 -0,1 C 22,3 km/h (4 Bft)
05.02.2016 03:30 1,8 C 1,1 C 87 % 1024,1 hPa 0,0 mm 13,2 km/h (3 Bft) W 270 -0,1 C 11,1 km/h (2 Bft)
05.02.2016 03:35 1,8 C 0,8 C 87 % 1024,1 hPa 0,0 mm 14,0 km/h (3 Bft) NW 315 -0,1 C 19,4 km/h (3 Bft)
05.02.2016 03:40 1,7 C 1,0 C 87 % 1024,1 hPa 0,0 mm 12,7 km/h (3 Bft) W 270 -0,2 C 13,2 km/h (3 Bft)
05.02.2016 03:45 1,7 C 0,8 C 87 % 1024,2 hPa 0,0 mm 12,4 km/h (3 Bft) W-NW 292 -0,2 C 23,0 km/h (4 Bft)
05.02.2016 03:50 1,7 C 0,8 C 87 % 1024,2 hPa 0,0 mm 12,9 km/h (3 Bft) W 270 -0,2 C 20,5 km/h (4 Bft)
05.02.2016 03:55 1,7 C 1,0 C 87 % 1024,2 hPa 0,0 mm 14,2 km/h (3 Bft) W-SW 247 -0,2 C 26,2 km/h (4 Bft)
05.02.2016 04:00 1,7 C 1,0 C 87 % 1024,2 hPa 0,0 mm 13,2 km/h (3 Bft) W-SW 247 -0,2 C 30,6 km/h (5 Bft)
05.02.2016 04:05 1,6 C 0,6 C 87 % 1024,4 hPa 0,0 mm 13,5 km/h (3 Bft) W-SW 247 -0,3 C 14,5 km/h (3 Bft)
05.02.2016 04:10 1,5 C 0,8 C 87 % 1024,4 hPa 0,0 mm 12,9 km/h (3 Bft) W-SW 247 -0,4 C 18,4 km/h (3 Bft)
05.02.2016 04:15 1,6 C 0,8 C 87 % 1024,4 hPa 0,0 mm 13,5 km/h (3 Bft) NW 315 -0,3 C 32,4 km/h (5 Bft)
05.02.2016 04:20 1,6 C 0,8 C 87 % 1024,4 hPa 0,0 mm 15,5 km/h (3 Bft) W 270 -0,3 C 10,4 km/h (2 Bft)
05.02.2016 04:25 1,5 C 0,7 C 87 % 1024,6 hPa 0,0 mm 12,9 km/h (3 Bft) W-SW 247 -0,4 C 19,4 km/h (3 Bft)
05.02.2016 04:30 1,4 C 0,5 C 87 % 1024,6 hPa 0,0 mm 10,1 km/h (2 Bft) SW 225 -0,5 C 15,5 km/h (3 Bft)
05.02.2016 04:35 1,5 C 0,5 C 87 % 1024,6 hPa 0,0 mm 11,4 km/h (2 Bft) NW 315 -0,4 C 15,3 km/h (3 Bft)
05.02.2016 04:40 1,5 C 0,5 C 88 % 1024,6 hPa 0,0 mm 11,9 km/h (2 Bft) W-SW 247 -0,3 C 11,9 km/h (2 Bft)
05.02.2016 04:45 1,6 C 0,6 C 88 % 1024,7 hPa 0,0 mm 11,7 km/h (2 Bft) W-SW 247 -0,2 C 17,3 km/h (3 Bft)
05.02.2016 04:48 1,6 C 0,6 C 88 % 1024,7 hPa 0,0 mm 11,7 km/h (2 Bft) W-SW 247 -0,2 C 17,3 km/h (3 Bft)
05.02.2016 04:50 1,6 C 0,8 C 88 % 1024,7 hPa 0,0 mm 10,1 km/h (2 Bft) NW 315 -0,2 C 12,4 km/h (3 Bft)
05.02.2016 04:55 1,6 C 1,0 C 88 % 1024,7 hPa 0,0 mm 8,5 km/h (2 Bft) NW 315 -0,2 C 18,9 km/h (3 Bft)
05.02.2016 05:00 1,7 C 1,0 C 88 % 1024,7 hPa 0,0 mm 9,3 km/h (2 Bft) W-SW 247 -0,1 C 8,3 km/h (2 Bft)
05.02.2016 05:05 1,6 C 0,8 C 88 % 1025,1 hPa 0,0 mm 10,4 km/h (2 Bft) NW 315 -0,2 C 11,7 km/h (2 Bft)
05.02.2016 05:10 1,7 C 0,9 C 88 % 1025,1 hPa 0,0 mm 10,4 km/h (2 Bft) W 270 -0,1 C 17,9 km/h (3 Bft)
05.02.2016 05:15 1,7 C 0,9 C 88 % 1025,1 hPa 0,0 mm 10,9 km/h (2 Bft) NW 315 -0,1 C 10,6 km/h (2 Bft)
05.02.2016 05:20 1,7 C 0,8 C 87 % 1025,1 hPa 0,0 mm 11,1 km/h (2 Bft) SW 225 -0,2 C 10,9 km/h (2 Bft)
05.02.2016 05:25 1,7 C 0,9 C 87 % 1025,3 hPa 0,0 mm 10,1 km/h (2 Bft) W 270 -0,2 C 12,4 km/h (3 Bft)
05.02.2016 05:30 1,6 C 1,0 C 87 % 1025,3 hPa 0,0 mm 8,5 km/h (2 Bft) W-SW 247 -0,3 C 11,4 km/h (2 Bft)
05.02.2016 05:35 1,6 C 0,9 C 88 % 1025,3 hPa 0,0 mm 9,1 km/h (2 Bft) W 270 -0,2 C 12,7 km/h (3 Bft)
05.02.2016 05:39 1,6 C 0,9 C 88 % 1028,3 hPa 0,0 mm 9,1 km/h (2 Bft) W 270 -0,2 C 12,7 km/h (3 Bft)
05.02.2016 05:40 1,6 C 0,7 C 88 % 1028,3 hPa 0,0 mm 10,1 km/h (2 Bft) W-NW 292 -0,2 C 9,1 km/h (2 Bft)
05.02.2016 05:45 1,6 C 0,7 C 88 % 1028,5 hPa 0,0 mm 9,3 km/h (2 Bft) W-SW 247 -0,2 C 11,4 km/h (2 Bft)
05.02.2016 05:48 1,6 C 0,7 C 88 % 1028,5 hPa 0,0 mm 9,3 km/h (2 Bft) W-SW 247 -0,2 C 11,4 km/h (2 Bft)
05.02.2016 05:50 1,5 C 0,7 C 88 % 1028,5 hPa 0,0 mm 8,3 km/h (2 Bft) W-SW 247 -0,3 C 20,7 km/h (4 Bft)
05.02.2016 05:55 1,6 C 0,8 C 88 % 1028,5 hPa 0,0 mm 8,5 km/h (2 Bft) W-SW 247 -0,2 C 8,0 km/h (2 Bft)
05.02.2016 05:58 1,6 C 0,8 C 88 % 1028,5 hPa 0,0 mm 8,5 km/h (2 Bft) W-SW 247 -0,2 C 8,0 km/h (2 Bft)
05.02.2016 05:59 1,6 C 0,9 C 88 % 1028,5 hPa 0,0 mm 7,8 km/h (2 Bft) W-NW 292 -0,2 C 3,6 km/h (1 Bft)
05.02.2016 06:00 1,6 C 0,9 C 88 % 1028,5 hPa 0,0 mm 7,8 km/h (2 Bft) W-NW 292 -0,2 C 3,6 km/h (1 Bft)
05.02.2016 06:05 1,5 C 0,9 C 88 % 1028,7 hPa 0,0 mm 7,0 km/h (2 Bft) W-NW 292 -0,3 C 4,1 km/h (1 Bft)
05.02.2016 06:10 1,6 C 1,2 C 88 % 1028,7 hPa 0,0 mm 6,0 km/h (2 Bft) W 270 -0,2 C 6,5 km/h (2 Bft)
05.02.2016 06:15 1,7 C 1,2 C 88 % 1028,7 hPa 0,0 mm 7,3 km/h (2 Bft) W-SW 247 -0,1 C 5,4 km/h (1 Bft)
05.02.2016 06:20 1,7 C 1,1 C 88 % 1028,7 hPa 0,0 mm 8,3 km/h (2 Bft) W 270 -0,1 C 10,4 km/h (2 Bft)
05.02.2016 06:25 1,7 C 1,2 C 88 % 1028,8 hPa 0,0 mm 8,0 km/h (2 Bft) NW 315 -0,1 C 4,9 km/h (1 Bft)
05.02.2016 06:30 1,9 C 1,2 C 88 % 1028,8 hPa 0,0 mm 8,5 km/h (2 Bft) NO 45 0,1 C 8,5 km/h (2 Bft)
05.02.2016 06:35 1,9 C 1,3 C 88 % 1028,8 hPa 0,7 mm 8,3 km/h (2 Bft) W 270 0,1 C 9,6 km/h (2 Bft)
05.02.2016 06:40 1,8 C 1,3 C 87 % 1028,8 hPa 0,0 mm 7,5 km/h (2 Bft) W-SW 247 -0,1 C 9,8 km/h (2 Bft)
05.02.2016 06:45 1,8 C 1,2 C 87 % 1028,9 hPa 0,0 mm 8,0 km/h (2 Bft) W-SW 247 -0,1 C 17,9 km/h (3 Bft)
05.02.2016 06:50 1,7 C 0,9 C 87 % 1028,9 hPa 0,0 mm 10,4 km/h (2 Bft) NW 315 -0,2 C 26,9 km/h (4 Bft)
05.02.2016 06:55 1,6 C 0,7 C 87 % 1028,9 hPa 0,0 mm 12,2 km/h (2 Bft) W 270 -0,3 C 22,5 km/h (4 Bft)
05.02.2016 07:00 1,6 C 0,8 C 87 % 1028,9 hPa 0,0 mm 14,0 km/h (3 Bft) NW 315 -0,3 C 14,0 km/h (3 Bft)
05.02.2016 07:05 1,5 C 0,4 C 87 % 1029,1 hPa 0,0 mm 13,2 km/h (3 Bft) W-NW 292 -0,4 C 10,4 km/h (2 Bft)
05.02.2016 07:10 1,5 C 0,6 C 87 % 1029,1 hPa 0,0 mm 9,6 km/h (2 Bft) W 270 -0,4 C 9,6 km/h (2 Bft)
05.02.2016 07:15 1,4 C 0,7 C 87 % 1029,1 hPa 0,0 mm 7,8 km/h (2 Bft) S-SO 157 -0,5 C 8,8 km/h (2 Bft)
05.02.2016 07:20 1,3 C 0,9 C 87 % 1029,1 hPa 0,0 mm 5,4 km/h (1 Bft) W-SW 247 -0,6 C 4,1 km/h (1 Bft)
05.02.2016 07:25 1,3 C 1,1 C 87 % 1029,2 hPa 0,0 mm 4,1 km/h (1 Bft) W 270 -0,6 C 5,2 km/h (1 Bft)
05.02.2016 07:30 1,3 C 1,0 C 88 % 1029,2 hPa 0,0 mm 4,9 km/h (1 Bft) W 270 -0,5 C 6,7 km/h (2 Bft)
05.02.2016 07:35 1,3 C 1,0 C 88 % 1029,2 hPa 0,0 mm 4,7 km/h (1 Bft) W-SW 247 -0,5 C 4,9 km/h (1 Bft)
05.02.2016 07:40 1,3 C 1,1 C 88 % 1029,2 hPa 0,0 mm 2,3 km/h (1 Bft) W-SW 247 -0,5 C 0,0 km/h (0 Bft)
05.02.2016 07:45 1,3 C 1,1 C 88 % 1029,3 hPa 0,0 mm 1,6 km/h (1 Bft) W-NW 292 -0,5 C 4,1 km/h (1 Bft)
05.02.2016 07:50 1,5 C 1,2 C 88 % 1029,3 hPa 0,0 mm 4,1 km/h (1 Bft) W-NW 292 -0,3 C 6,5 km/h (2 Bft)
05.02.2016 07:55 1,6 C 1,0 C 88 % 1029,3 hPa 0,0 mm 6,0 km/h (2 Bft) W-SW 247 -0,2 C 7,8 km/h (2 Bft)
05.02.2016 08:00 1,6 C 1,2 C 89 % 1029,3 hPa 0,0 mm 5,2 km/h (1 Bft) W-SW 247 -0,0 C 5,7 km/h (1 Bft)
05.02.2016 08:05 1,7 C 1,3 C 89 % 1029,7 hPa 0,0 mm 4,9 km/h (1 Bft) W-SW 247 0,1 C 2,6 km/h (1 Bft)
05.02.2016 08:10 1,7 C 1,4 C 89 % 1029,7 hPa 0,0 mm 4,9 km/h (1 Bft) W 270 0,1 C 6,0 km/h (2 Bft)
05.02.2016 08:15 1,8 C 1,4 C 89 % 1029,7 hPa 0,0 mm 5,2 km/h (1 Bft) W-SW 247 0,2 C 9,8 km/h (2 Bft)
05.02.2016 08:20 2,0 C 1,5 C 88 % 1029,7 hPa 0,0 mm 6,2 km/h (2 Bft) W-SW 247 0,2 C 13,2 km/h (3 Bft)
05.02.2016 08:25 2,0 C 1,6 C 88 % 1029,6 hPa 0,0 mm 6,2 km/h (2 Bft) NW 315 0,2 C 8,8 km/h (2 Bft)
05.02.2016 08:30 2,0 C 1,8 C 84 % 1029,6 hPa 0,0 mm 5,7 km/h (1 Bft) W 270 -0,4 C 5,2 km/h (1 Bft)
05.02.2016 08:35 2,1 C 1,7 C 88 % 1029,6 hPa 0,0 mm 6,2 km/h (2 Bft) W 270 0,3 C 5,2 km/h (1 Bft)
05.02.2016 08:40 2,2 C 1,8 C 88 % 1029,6 hPa 0,0 mm 6,2 km/h (2 Bft) W 270 0,4 C 4,7 km/h (1 Bft)
05.02.2016 08:45 2,2 C 2,0 C 84 % 1029,6 hPa 0,0 mm 5,7 km/h (1 Bft) W-SW 247 -0,2 C 6,0 km/h (2 Bft)
05.02.2016 08:50 2,3 C 2,4 C 84 % 1029,6 hPa 0,0 mm 4,7 km/h (1 Bft) W-SW 247 -0,1 C 5,2 km/h (1 Bft)
05.02.2016 08:55 2,3 C 2,4 C 84 % 1029,6 hPa 0,0 mm 3,4 km/h (1 Bft) SW 225 -0,1 C 3,6 km/h (1 Bft)
05.02.2016 09:00 2,3 C 2,6 C 84 % 1029,6 hPa 0,0 mm 2,1 km/h (1 Bft) W-SW 247 -0,1 C 3,9 km/h (1 Bft)
05.02.2016 09:05 2,4 C 2,7 C 83 % 1029,7 hPa 0,0 mm 2,8 km/h (1 Bft) W 270 -0,2 C 8,3 km/h (2 Bft)
05.02.2016 09:10 2,4 C 2,7 C 83 % 1029,7 hPa 0,0 mm 3,9 km/h (1 Bft) SW 225 -0,2 C 8,8 km/h (2 Bft)
05.02.2016 09:15 2,3 C 2,8 C 83 % 1029,7 hPa 0,0 mm 3,6 km/h (1 Bft) W 270 -0,3 C 6,0 km/h (2 Bft)
05.02.2016 09:20 2,5 C 3,0 C 83 % 1029,7 hPa 0,0 mm 4,4 km/h (1 Bft) W-SW 247 -0,1 C 8,5 km/h (2 Bft)
05.02.2016 09:25 2,6 C 2,9 C 83 % 1029,7 hPa 0,0 mm 4,9 km/h (1 Bft) W 270 0,0 C 4,1 km/h (1 Bft)
05.02.2016 09:30 2,6 C 2,9 C 83 % 1029,7 hPa 0,0 mm 4,9 km/h (1 Bft) N-NW 337 0,0 C 4,7 km/h (1 Bft)
05.02.2016 09:35 2,6 C 3,2 C 83 % 1029,7 hPa 0,0 mm 4,4 km/h (1 Bft) W-NW 292 0,0 C 7,8 km/h (2 Bft)
05.02.2016 09:40 2,6 C 3,0 C 83 % 1029,7 hPa 0,0 mm 4,7 km/h (1 Bft) W 270 0,0 C 4,7 km/h (1 Bft)
05.02.2016 09:45 2,7 C 3,2 C 83 % 1029,9 hPa 0,0 mm 3,6 km/h (1 Bft) S-SW 202 0,1 C 6,2 km/h (2 Bft)
05.02.2016 09:50 2,8 C 3,6 C 83 % 1029,9 hPa 0,0 mm 2,8 km/h (1 Bft) W 270 0,2 C 5,4 km/h (1 Bft)
05.02.2016 09:55 2,8 C 3,8 C 83 % 1029,9 hPa 0,0 mm 4,7 km/h (1 Bft) NW 315 0,2 C 10,6 km/h (2 Bft)
05.02.2016 10:00 2,9 C 3,8 C 82 % 1029,9 hPa 0,0 mm 5,7 km/h (1 Bft) W-SW 247 0,1 C 8,3 km/h (2 Bft)
05.02.2016 10:05 2,9 C 3,7 C 82 % 1030,1 hPa 0,0 mm 6,0 km/h (2 Bft) NW 315 0,1 C 4,9 km/h (1 Bft)
05.02.2016 10:10 3,0 C 3,8 C 81 % 1030,1 hPa 0,0 mm 6,2 km/h (2 Bft) W-NW 292 0,1 C 7,3 km/h (2 Bft)
05.02.2016 10:15 3,1 C 4,1 C 81 % 1030,1 hPa 0,0 mm 5,7 km/h (1 Bft) W 270 0,2 C 7,8 km/h (2 Bft)
05.02.2016 10:20 3,1 C 4,3 C 81 % 1030,1 hPa 0,0 mm 6,2 km/h (2 Bft) SW 225 0,2 C 8,8 km/h (2 Bft)
05.02.2016 10:25 3,3 C 4,3 C 80 % 1030,3 hPa 0,0 mm 7,0 km/h (2 Bft) W 270 0,2 C 12,4 km/h (3 Bft)
05.02.2016 10:30 3,5 C 5,1 C 80 % 1030,3 hPa 0,0 mm 6,5 km/h (2 Bft) W-NW 292 0,4 C 5,7 km/h (1 Bft)
05.02.2016 10:35 3,6 C 5,0 C 80 % 1030,3 hPa 0,0 mm 6,7 km/h (2 Bft) SW 225 0,5 C 9,6 km/h (2 Bft)
05.02.2016 10:40 3,6 C 4,7 C 80 % 1030,3 hPa 0,0 mm 8,0 km/h (2 Bft) NW 315 0,5 C 15,8 km/h (3 Bft)
05.02.2016 10:45 3,6 C 4,2 C 80 % 1030,4 hPa 0,0 mm 8,5 km/h (2 Bft) S-SW 202 0,5 C 14,8 km/h (3 Bft)
05.02.2016 10:49 3,6 C 3,8 C 79 % 1030,4 hPa 0,0 mm 8,8 km/h (2 Bft) W 270 0,3 C 10,1 km/h (2 Bft)
05.02.2016 10:50 3,6 C 3,8 C 79 % 1030,4 hPa 0,0 mm 8,8 km/h (2 Bft) W 270 0,3 C 10,1 km/h (2 Bft)
05.02.2016 10:55 3,5 C 3,6 C 79 % 1030,4 hPa 0,0 mm 8,0 km/h (2 Bft) NW 315 0,2 C 9,8 km/h (2 Bft)
05.02.2016 11:00 3,5 C 3,5 C 79 % 1030,4 hPa 0,0 mm 7,0 km/h (2 Bft) W 270 0,2 C 9,8 km/h (2 Bft)
05.02.2016 11:05 3,4 C 3,4 C 79 % 1030,6 hPa 0,0 mm 8,0 km/h (2 Bft) W 270 0,1 C 12,7 km/h (3 Bft)
05.02.2016 11:10 3,4 C 3,5 C 79 % 1030,6 hPa 0,0 mm 8,0 km/h (2 Bft) NW 315 0,1 C 10,1 km/h (2 Bft)
05.02.2016 11:15 3,5 C 3,6 C 79 % 1030,6 hPa 0,0 mm 7,0 km/h (2 Bft) W-SW 247 0,2 C 6,5 km/h (2 Bft)
05.02.2016 11:20 3,6 C 3,9 C 79 % 1030,6 hPa 0,0 mm 6,5 km/h (2 Bft) W-SW 247 0,3 C 8,0 km/h (2 Bft)
05.02.2016 11:25 3,6 C 4,2 C 80 % 1030,4 hPa 0,0 mm 6,5 km/h (2 Bft) W-SW 247 0,5 C 5,2 km/h (1 Bft)
05.02.2016 11:30 3,7 C 4,6 C 80 % 1030,4 hPa 0,0 mm 4,7 km/h (1 Bft) W 270 0,6 C 4,1 km/h (1 Bft)
05.02.2016 11:35 3,7 C 4,6 C 80 % 1030,4 hPa 0,0 mm 3,9 km/h (1 Bft) W 270 0,6 C 4,7 km/h (1 Bft)
05.02.2016 11:40 3,8 C 4,7 C 80 % 1030,4 hPa 0,0 mm 4,7 km/h (1 Bft) W 270 0,7 C 6,2 km/h (2 Bft)
05.02.2016 11:45 3,8 C 4,3 C 80 % 1030,5 hPa 0,0 mm 5,7 km/h (1 Bft) W-NW 292 0,7 C 11,7 km/h (2 Bft)
05.02.2016 11:50 3,7 C 4,1 C 80 % 1030,5 hPa 0,0 mm 6,5 km/h (2 Bft) W-SW 247 0,6 C 7,0 km/h (2 Bft)
05.02.2016 11:55 3,7 C 4,0 C 80 % 1030,5 hPa 0,0 mm 7,5 km/h (2 Bft) W 270 0,6 C 12,4 km/h (3 Bft)
05.02.2016 12:00 3,7 C 3,9 C 79 % 1030,5 hPa 0,0 mm 7,5 km/h (2 Bft) O 90 0,4 C 4,9 km/h (1 Bft)
05.02.2016 12:05 3,7 C 4,1 C 79 % 1030,1 hPa 0,0 mm 7,8 km/h (2 Bft) W 270 0,4 C 8,0 km/h (2 Bft)
05.02.2016 12:10 3,8 C 4,3 C 79 % 1030,1 hPa 0,0 mm 6,2 km/h (2 Bft) W 270 0,5 C 9,8 km/h (2 Bft)
05.02.2016 12:15 3,8 C 4,3 C 79 % 1030,1 hPa 0,0 mm 6,5 km/h (2 Bft) W 270 0,5 C 10,1 km/h (2 Bft)
05.02.2016 12:20 3,9 C 4,6 C 79 % 1030,1 hPa 0,0 mm 6,2 km/h (2 Bft) SW 225 0,6 C 9,8 km/h (2 Bft)
05.02.2016 12:25 3,9 C 4,7 C 79 % 1029,9 hPa 0,0 mm 6,2 km/h (2 Bft) W 270 0,6 C 8,8 km/h (2 Bft)
05.02.2016 12:30 3,9 C 4,4 C 78 % 1029,9 hPa 0,0 mm 7,8 km/h (2 Bft) SW 225 0,4 C 14,5 km/h (3 Bft)
05.02.2016 12:35 4,0 C 4,4 C 78 % 1029,9 hPa 0,0 mm 8,3 km/h (2 Bft) NW 315 0,5 C 4,7 km/h (1 Bft)
05.02.2016 12:40 4,0 C 4,4 C 78 % 1029,9 hPa 0,0 mm 7,3 km/h (2 Bft) S 180 0,5 C 10,6 km/h (2 Bft)
05.02.2016 12:45 4,0 C 4,8 C 78 % 1029,9 hPa 0,0 mm 6,2 km/h (2 Bft) W 270 0,5 C 7,8 km/h (2 Bft)
05.02.2016 12:50 4,2 C 5,3 C 77 % 1029,9 hPa 0,0 mm 6,0 km/h (2 Bft) W-NW 292 0,5 C 3,4 km/h (1 Bft)
05.02.2016 12:55 4,2 C 5,5 C 77 % 1029,9 hPa 0,0 mm 6,5 km/h (2 Bft) NW 315 0,5 C 8,8 km/h (2 Bft)
05.02.2016 13:00 4,6 C 6,3 C 77 % 1029,9 hPa 0,0 mm 5,7 km/h (1 Bft) W 270 0,9 C 9,8 km/h (2 Bft)
05.02.2016 13:05 4,7 C 6,5 C 77 % 1029,6 hPa 0,0 mm 5,7 km/h (1 Bft) W-SW 247 1,0 C 6,2 km/h (2 Bft)
05.02.2016 13:10 4,9 C 6,9 C 77 % 1029,6 hPa 0,0 mm 6,2 km/h (2 Bft) W-NW 292 1,2 C 7,5 km/h (2 Bft)
05.02.2016 13:15 5,0 C 6,9 C 76 % 1029,6 hPa 0,0 mm 6,5 km/h (2 Bft) W-SW 247 1,1 C 7,5 km/h (2 Bft)
05.02.2016 13:20 5,1 C 7,3 C 76 % 1029,6 hPa 0,0 mm 5,7 km/h (1 Bft) W 270 1,2 C 3,6 km/h (1 Bft)
05.02.2016 13:25 5,2 C 7,5 C 76 % 1029,9 hPa 0,0 mm 4,4 km/h (1 Bft) SW 225 1,3 C 8,0 km/h (2 Bft)
05.02.2016 13:30 5,2 C 7,7 C 75 % 1029,9 hPa 0,0 mm 5,2 km/h (1 Bft) W-SW 247 1,1 C 11,9 km/h (2 Bft)
05.02.2016 13:35 5,3 C 7,6 C 74 % 1029,9 hPa 0,0 mm 5,7 km/h (1 Bft) W-NW 292 1,0 C 7,3 km/h (2 Bft)
05.02.2016 13:40 5,4 C 7,5 C 74 % 1029,9 hPa 0,0 mm 5,2 km/h (1 Bft) W-NW 292 1,1 C 9,6 km/h (2 Bft)
05.02.2016 13:45 5,3 C 7,2 C 74 % 1029,2 hPa 0,0 mm 6,2 km/h (2 Bft) W-SW 247 1,0 C 11,1 km/h (2 Bft)
05.02.2016 13:50 5,3 C 6,6 C 73 % 1029,2 hPa 0,0 mm 7,0 km/h (2 Bft) W 270 0,9 C 7,3 km/h (2 Bft)
05.02.2016 13:55 5,3 C 6,8 C 73 % 1029,2 hPa 0,0 mm 5,7 km/h (1 Bft) W 270 0,9 C 2,8 km/h (1 Bft)
05.02.2016 14:00 5,4 C 6,9 C 74 % 1029,2 hPa 0,0 mm 4,4 km/h (1 Bft) NW 315 1,1 C 9,1 km/h (2 Bft)
05.02.2016 14:05 5,3 C 6,7 C 74 % 1029,2 hPa 0,0 mm 3,9 km/h (1 Bft) W 270 1,0 C 0,0 km/h (0 Bft)
05.02.2016 14:10 5,4 C 6,6 C 74 % 1029,2 hPa 0,0 mm 3,6 km/h (1 Bft) W-NW 292 1,1 C 3,9 km/h (1 Bft)
05.02.2016 14:15 5,4 C 6,6 C 74 % 1029,2 hPa 0,0 mm 2,3 km/h (1 Bft) W-SW 247 1,1 C 3,6 km/h (1 Bft)
05.02.2016 14:20 5,4 C 6,7 C 74 % 1029,2 hPa 0,0 mm 2,3 km/h (1 Bft) NW 315 1,1 C 5,2 km/h (1 Bft)
05.02.2016 14:25 5,5 C 6,7 C 74 % 1028,8 hPa 0,0 mm 2,1 km/h (1 Bft) N-NW 337 1,2 C 0,0 km/h (0 Bft)
05.02.2016 14:30 5,6 C 6,9 C 74 % 1028,8 hPa 0,0 mm 1,6 km/h (1 Bft) N-NO 22 1,3 C 3,6 km/h (1 Bft)
05.02.2016 14:35 5,6 C 6,9 C 74 % 1028,8 hPa 0,0 mm 1,6 km/h (1 Bft) NW 315 1,3 C 4,1 km/h (1 Bft)
05.02.2016 14:40 5,7 C 6,9 C 74 % 1028,8 hPa 0,0 mm 1,6 km/h (1 Bft) N-NO 22 1,4 C 0,0 km/h (0 Bft)
05.02.2016 14:45 5,8 C 7,1 C 74 % 1028,6 hPa 0,0 mm 1,0 km/h (0 Bft) NW 315 1,5 C 0,0 km/h (0 Bft)
05.02.2016 14:50 5,8 C 7,2 C 74 % 1028,6 hPa 0,0 mm 0,0 km/h (0 Bft) N-NW 337 1,5 C 0,0 km/h (0 Bft)
05.02.2016 14:55 5,9 C 7,2 C 74 % 1028,6 hPa 0,0 mm 0,3 km/h (0 Bft) N-NW 337 1,6 C 3,1 km/h (1 Bft)
05.02.2016 15:00 5,9 C 7,2 C 74 % 1028,6 hPa 0,0 mm 0,3 km/h (0 Bft) NW 315 1,6 C 0,0 km/h (0 Bft)
05.02.2016 15:05 6,0 C 7,3 C 72 % 1028,6 hPa 0,0 mm 0,3 km/h (0 Bft) N-NO 22 1,3 C 3,4 km/h (1 Bft)
05.02.2016 15:10 5,9 C 7,3 C 74 % 1028,6 hPa 0,0 mm 0,3 km/h (0 Bft) N-NO 22 1,6 C 0,0 km/h (0 Bft)
05.02.2016 15:15 5,9 C 7,4 C 73 % 1028,6 hPa 0,0 mm 0,3 km/h (0 Bft) S 180 1,4 C 0,0 km/h (0 Bft)
05.02.2016 15:20 5,9 C 7,5 C 73 % 1028,6 hPa 0,0 mm 0,8 km/h (0 Bft) SO 135 1,4 C 0,0 km/h (0 Bft)
05.02.2016 15:25 5,9 C 7,4 C 73 % 1028,4 hPa 0,0 mm 1,6 km/h (1 Bft) O-SO 112 1,4 C 2,6 km/h (1 Bft)
05.02.2016 15:30 5,9 C 7,4 C 73 % 1028,4 hPa 0,0 mm 1,8 km/h (1 Bft) W 270 1,4 C 0,0 km/h (0 Bft)
05.02.2016 15:35 6,0 C 7,4 C 71 % 1028,4 hPa 0,0 mm 1,3 km/h (1 Bft) SW 225 1,1 C 0,0 km/h (0 Bft)
05.02.2016 15:40 6,2 C 7,5 C 71 % 1028,4 hPa 0,0 mm 0,3 km/h (0 Bft) SW 225 1,3 C 0,0 km/h (0 Bft)
05.02.2016 15:45 6,2 C 7,5 C 71 % 1028,5 hPa 0,0 mm 0,3 km/h (0 Bft) W-SW 247 1,3 C 0,0 km/h (0 Bft)
05.02.2016 15:50 6,2 C 7,4 C 71 % 1028,5 hPa 0,0 mm 0,3 km/h (0 Bft) NW 315 1,3 C 0,0 km/h (0 Bft)
05.02.2016 15:55 6,0 C 7,2 C 71 % 1028,5 hPa 0,0 mm 0,0 km/h (0 Bft) W-SW 247 1,1 C 0,0 km/h (0 Bft)
05.02.2016 16:00 5,9 C 7,1 C 73 % 1028,5 hPa 0,0 mm 0,0 km/h (0 Bft) N-NO 22 1,4 C 0,0 km/h (0 Bft)
05.02.2016 16:05 5,8 C 6,9 C 73 % 1028,6 hPa 0,0 mm 0,0 km/h (0 Bft) N-NO 22 1,3 C 0,0 km/h (0 Bft)
05.02.2016 16:10 5,6 C 6,8 C 73 % 1028,6 hPa 0,0 mm 0,0 km/h (0 Bft) O-NO 67 1,2 C 0,0 km/h (0 Bft)
05.02.2016 16:15 5,6 C 6,7 C 73 % 1028,6 hPa 0,0 mm 0,0 km/h (0 Bft) O-NO 67 1,2 C 0,0 km/h (0 Bft)
05.02.2016 16:20 5,5 C 6,6 C 73 % 1028,6 hPa 0,0 mm 0,0 km/h (0 Bft) O-NO 67 1,1 C 0,0 km/h (0 Bft)
05.02.2016 16:25 5,4 C 6,3 C 73 % 1028,4 hPa 0,0 mm 0,0 km/h (0 Bft) O-SO 112 1,0 C 0,0 km/h (0 Bft)
05.02.2016 16:30 5,2 C 6,0 C 73 % 1028,4 hPa 0,0 mm 0,0 km/h (0 Bft) W 270 0,8 C 0,0 km/h (0 Bft)
05.02.2016 16:35 4,9 C 5,7 C 73 % 1028,4 hPa 0,0 mm 0,3 km/h (0 Bft) SW 225 0,5 C 2,8 km/h (1 Bft)
05.02.2016 16:40 4,6 C 5,2 C 74 % 1028,4 hPa 0,0 mm 0,3 km/h (0 Bft) S 180 0,4 C 0,0 km/h (0 Bft)
05.02.2016 16:45 4,6 C 4,9 C 74 % 1028,4 hPa 0,0 mm 0,3 km/h (0 Bft) S-SO 157 0,4 C 0,0 km/h (0 Bft)
05.02.2016 16:49 4,2 C 4,4 C 75 % 1028,4 hPa 0,0 mm 0,0 km/h (0 Bft) S 180 0,2 C 0,0 km/h (0 Bft)
05.02.2016 16:50 4,2 C 4,4 C 75 % 1028,4 hPa 0,0 mm 0,0 km/h (0 Bft) S 180 0,2 C 0,0 km/h (0 Bft)
05.02.2016 16:55 4,0 C 4,0 C 75 % 1028,4 hPa 0,0 mm 0,0 km/h (0 Bft) S-SO 157 -0,0 C 0,0 km/h (0 Bft)
05.02.2016 17:00 3,6 C 3,6 C 76 % 1028,4 hPa 0,0 mm 0,3 km/h (0 Bft) SW 225 -0,2 C 3,6 km/h (1 Bft)
05.02.2016 17:05 3,6 C 3,5 C 76 % 1028,4 hPa 0,0 mm 0,3 km/h (0 Bft) S 180 -0,2 C 0,0 km/h (0 Bft)
05.02.2016 17:10 3,5 C 3,4 C 77 % 1028,4 hPa 0,0 mm 0,3 km/h (0 Bft) S-SO 157 -0,1 C 0,0 km/h (0 Bft)
05.02.2016 17:15 3,5 C 3,3 C 78 % 1028,4 hPa 0,0 mm 0,0 km/h (0 Bft) S-SO 157 0,0 C 0,0 km/h (0 Bft)
05.02.2016 17:20 3,3 C 3,0 C 79 % 1028,4 hPa 0,0 mm 0,0 km/h (0 Bft) S-SO 157 0,0 C 0,0 km/h (0 Bft)
05.02.2016 17:25 3,1 C 2,8 C 79 % 1028,5 hPa 0,0 mm 0,0 km/h (0 Bft) S-SO 157 -0,2 C 0,0 km/h (0 Bft)
05.02.2016 17:30 2,9 C 2,6 C 81 % 1028,5 hPa 0,0 mm 0,0 km/h (0 Bft) SO 135 -0,0 C 0,0 km/h (0 Bft)
05.02.2016 17:35 2,7 C 2,3 C 81 % 1028,5 hPa 0,0 mm 0,0 km/h (0 Bft) O-SO 112 -0,2 C 0,0 km/h (0 Bft)
05.02.2016 17:40 2,3 C 2,0 C 80 % 1028,5 hPa 0,0 mm 0,0 km/h (0 Bft) O 90 -0,8 C 0,0 km/h (0 Bft)
05.02.2016 17:45 2,2 C 1,8 C 80 % 1028,2 hPa 0,0 mm 0,0 km/h (0 Bft) SO 135 -0,9 C 0,0 km/h (0 Bft)
05.02.2016 17:50 2,2 C 1,7 C 81 % 1028,2 hPa 0,0 mm 0,0 km/h (0 Bft) SO 135 -0,7 C 0,0 km/h (0 Bft)
05.02.2016 17:55 2,3 C 1,7 C 82 % 1028,2 hPa 0,0 mm 0,0 km/h (0 Bft) W 270 -0,4 C 0,0 km/h (0 Bft)
05.02.2016 18:00 2,2 C 1,5 C 83 % 1028,2 hPa 0,0 mm 0,0 km/h (0 Bft) S-SO 157 -0,4 C 0,0 km/h (0 Bft)
05.02.2016 18:05 2,1 C 1,4 C 83 % 1028,2 hPa 0,0 mm 0,0 km/h (0 Bft) SO 135 -0,5 C 0,0 km/h (0 Bft)
05.02.2016 18:10 1,7 C 1,1 C 83 % 1028,2 hPa 0,0 mm 0,0 km/h (0 Bft) S-SO 157 -0,9 C 0,0 km/h (0 Bft)
05.02.2016 18:15 1,9 C 1,2 C 84 % 1028,2 hPa 0,0 mm 0,0 km/h (0 Bft) S-SO 157 -0,5 C 0,0 km/h (0 Bft)
05.02.2016 18:20 1,5 C 0,9 C 84 % 1028,2 hPa 0,0 mm 0,0 km/h (0 Bft) N-NO 22 -0,9 C 0,0 km/h (0 Bft)
05.02.2016 18:25 1,1 C 0,6 C 83 % 1028,3 hPa 0,0 mm 0,0 km/h (0 Bft) NW 315 -1,5 C 0,0 km/h (0 Bft)
05.02.2016 18:30 0,8 C 0,3 C 83 % 1028,3 hPa 0,0 mm 0,0 km/h (0 Bft) NW 315 -1,8 C 0,0 km/h (0 Bft)
05.02.2016 18:35 0,6 C 0,2 C 83 % 1028,3 hPa 0,0 mm 0,0 km/h (0 Bft) NW 315 -1,9 C 0,0 km/h (0 Bft)
05.02.2016 18:40 0,5 C 0,1 C 83 % 1028,3 hPa 0,0 mm 0,0 km/h (0 Bft) N-NW 337 -2,0 C 0,0 km/h (0 Bft)
05.02.2016 18:45 0,5 C 0,1 C 83 % 1028,0 hPa 0,0 mm 0,0 km/h (0 Bft) N-NO 22 -2,0 C 0,0 km/h (0 Bft)
05.02.2016 18:50 0,4 C 0,0 C 83 % 1028,0 hPa 0,0 mm 0,0 km/h (0 Bft) NO 45 -2,1 C 0,0 km/h (0 Bft)
05.02.2016 18:55 0,4 C 0,0 C 84 % 1028,0 hPa 0,0 mm 0,0 km/h (0 Bft) NO 45 -2,0 C 0,0 km/h (0 Bft)
05.02.2016 19:00 0,3 C -0,1 C 84 % 1028,0 hPa 0,0 mm 0,0 km/h (0 Bft) NO 45 -2,1 C 0,0 km/h (0 Bft)
05.02.2016 19:05 0,3 C -0,1 C 84 % 1027,8 hPa 0,0 mm 0,0 km/h (0 Bft) NO 45 -2,1 C 0,0 km/h (0 Bft)
05.02.2016 19:10 0,4 C 0,0 C 85 % 1027,8 hPa 0,0 mm 0,0 km/h (0 Bft) N-NO 22 -1,8 C 0,0 km/h (0 Bft)
05.02.2016 19:15 0,5 C 0,1 C 85 % 1027,8 hPa 0,0 mm 0,0 km/h (0 Bft) N 360 -1,7 C 2,6 km/h (1 Bft)
05.02.2016 19:20 0,6 C 0,2 C 85 % 1027,8 hPa 0,0 mm 1,3 km/h (1 Bft) W-NW 292 -1,6 C 5,4 km/h (1 Bft)
05.02.2016 19:25 0,6 C 0,2 C 86 % 1027,7 hPa 0,0 mm 1,6 km/h (1 Bft) O-SO 112 -1,5 C 0,0 km/h (0 Bft)
05.02.2016 19:30 0,2 C -0,1 C 86 % 1027,7 hPa 0,0 mm 0,5 km/h (0 Bft) NO 45 -1,9 C 0,0 km/h (0 Bft)
05.02.2016 19:35 -0,1 C -0,4 C 86 % 1027,7 hPa 0,0 mm 0,0 km/h (0 Bft) NO 45 -2,2 C 0,0 km/h (0 Bft)
05.02.2016 19:40 -0,1 C -0,5 C 86 % 1027,7 hPa 0,0 mm 0,0 km/h (0 Bft) NO 45 -2,2 C 0,0 km/h (0 Bft)
05.02.2016 19:45 0,0 C -0,4 C 86 % 1027,5 hPa 0,0 mm 0,3 km/h (0 Bft) NW 315 -2,1 C 4,9 km/h (1 Bft)
05.02.2016 19:50 0,3 C -0,1 C 86 % 1027,5 hPa 0,0 mm 0,3 km/h (0 Bft) W 270 -1,8 C 3,6 km/h (1 Bft)
05.02.2016 19:55 0,3 C -0,1 C 86 % 1027,5 hPa 0,0 mm 0,3 km/h (0 Bft) NW 315 -1,8 C 0,0 km/h (0 Bft)
05.02.2016 20:00 0,2 C -0,1 C 86 % 1027,5 hPa 0,0 mm 0,3 km/h (0 Bft) S 180 -1,9 C 0,0 km/h (0 Bft)
05.02.2016 20:05 0,6 C 0,3 C 87 % 1027,5 hPa 0,0 mm 1,3 km/h (1 Bft) SW 225 -1,3 C 0,0 km/h (0 Bft)
05.02.2016 20:10 0,7 C 0,4 C 88 % 1027,5 hPa 0,0 mm 1,6 km/h (1 Bft) NW 315 -1,1 C 0,0 km/h (0 Bft)
05.02.2016 20:15 0,6 C 0,3 C 88 % 1027,5 hPa 0,0 mm 1,0 km/h (0 Bft) NW 315 -1,2 C 2,6 km/h (1 Bft)
05.02.2016 20:20 0,3 C 0,1 C 88 % 1027,5 hPa 0,0 mm 1,0 km/h (0 Bft) NW 315 -1,4 C 0,0 km/h (0 Bft)
05.02.2016 20:25 0,3 C 0,1 C 88 % 1027,2 hPa 0,0 mm 1,8 km/h (1 Bft) W-NW 292 -1,4 C 4,9 km/h (1 Bft)
05.02.2016 20:30 0,3 C 0,0 C 88 % 1027,2 hPa 0,0 mm 1,0 km/h (0 Bft) N-NW 337 -1,4 C 0,0 km/h (0 Bft)
05.02.2016 20:35 0,4 C 0,1 C 88 % 1027,2 hPa 0,0 mm 0,5 km/h (0 Bft) N-NW 337 -1,3 C 3,1 km/h (1 Bft)
05.02.2016 20:40 0,4 C 0,1 C 88 % 1027,2 hPa 0,0 mm 0,5 km/h (0 Bft) NW 315 -1,3 C 4,9 km/h (1 Bft)
05.02.2016 20:45 0,4 C 0,1 C 88 % 1026,9 hPa 0,0 mm 1,3 km/h (1 Bft) NW 315 -1,3 C 0,0 km/h (0 Bft)
05.02.2016 20:50 0,5 C 0,1 C 88 % 1026,9 hPa 0,0 mm 1,0 km/h (0 Bft) O-SO 112 -1,3 C 0,0 km/h (0 Bft)
05.02.2016 20:55 0,2 C -0,1 C 88 % 1026,9 hPa 0,0 mm 0,0 km/h (0 Bft) O 90 -1,5 C 0,0 km/h (0 Bft)
05.02.2016 21:00 0,2 C -0,2 C 88 % 1026,9 hPa 0,0 mm 0,0 km/h (0 Bft) NO 45 -1,5 C 0,0 km/h (0 Bft)
05.02.2016 21:05 0,1 C -0,3 C 88 % 1026,9 hPa 0,0 mm 0,0 km/h (0 Bft) NW 315 -1,6 C 0,0 km/h (0 Bft)
05.02.2016 21:10 -0,1 C -0,5 C 88 % 1026,9 hPa 0,0 mm 0,0 km/h (0 Bft) N-NW 337 -1,8 C 0,0 km/h (0 Bft)
05.02.2016 21:15 -0,5 C -0,8 C 88 % 1026,9 hPa 0,0 mm 0,0 km/h (0 Bft) W 270 -2,2 C 0,0 km/h (0 Bft)
05.02.2016 21:20 -0,6 C -0,9 C 88 % 1026,9 hPa 0,0 mm 0,0 km/h (0 Bft) N-NW 337 -2,3 C 0,0 km/h (0 Bft)
05.02.2016 21:25 -0,6 C -0,9 C 88 % 1026,7 hPa 0,0 mm 0,0 km/h (0 Bft) O 90 -2,3 C 0,0 km/h (0 Bft)
05.02.2016 21:30 -0,6 C -1,0 C 88 % 1026,7 hPa 0,0 mm 0,0 km/h (0 Bft) NW 315 -2,3 C 0,0 km/h (0 Bft)
05.02.2016 21:35 -0,4 C -0,9 C 88 % 1026,7 hPa 0,0 mm 0,3 km/h (0 Bft) O 90 -2,1 C 0,0 km/h (0 Bft)
05.02.2016 21:40 0,0 C -0,5 C 89 % 1026,7 hPa 0,0 mm 0,3 km/h (0 Bft) NW 315 -1,6 C 0,0 km/h (0 Bft)
05.02.2016 21:45 -0,3 C -0,7 C 89 % 1026,6 hPa 0,0 mm 0,0 km/h (0 Bft) SW 225 -1,9 C 0,0 km/h (0 Bft)
05.02.2016 21:50 -0,3 C -0,7 C 89 % 1026,6 hPa 0,0 mm 0,3 km/h (0 Bft) N-NW 337 -1,9 C 0,0 km/h (0 Bft)
05.02.2016 21:55 0,1 C -0,4 C 89 % 1026,6 hPa 0,0 mm 0,3 km/h (0 Bft) W 270 -1,5 C 0,0 km/h (0 Bft)
05.02.2016 22:00 0,1 C -0,3 C 85 % 1026,6 hPa 0,0 mm 0,0 km/h (0 Bft) O-SO 112 -2,1 C 0,0 km/h (0 Bft)
05.02.2016 22:05 -0,2 C -0,6 C 89 % 1026,3 hPa 0,0 mm 0,0 km/h (0 Bft) NO 45 -1,8 C 0,0 km/h (0 Bft)
05.02.2016 22:10 0,0 C -0,5 C 89 % 1026,3 hPa 0,0 mm 0,0 km/h (0 Bft) O-SO 112 -1,6 C 0,0 km/h (0 Bft)
05.02.2016 22:15 0,1 C -0,3 C 85 % 1026,3 hPa 0,0 mm 0,0 km/h (0 Bft) O-SO 112 -2,1 C 0,0 km/h (0 Bft)
05.02.2016 22:20 0,0 C -0,5 C 90 % 1026,3 hPa 0,0 mm 0,0 km/h (0 Bft) N-NO 22 -1,4 C 0,0 km/h (0 Bft)
05.02.2016 22:25 -0,5 C -0,8 C 90 % 1026,2 hPa 0,0 mm 0,0 km/h (0 Bft) N 360 -1,9 C 0,0 km/h (0 Bft)
05.02.2016 22:30 -0,7 C -1,1 C 89 % 1026,2 hPa 0,0 mm 0,0 km/h (0 Bft) NW 315 -2,3 C 0,0 km/h (0 Bft)
05.02.2016 22:35 -0,8 C -1,2 C 89 % 1026,2 hPa 0,0 mm 0,0 km/h (0 Bft) NW 315 -2,4 C 0,0 km/h (0 Bft)
05.02.2016 22:40 -0,9 C -1,3 C 89 % 1026,2 hPa 0,0 mm 0,0 km/h (0 Bft) O-NO 67 -2,5 C 0,0 km/h (0 Bft)
05.02.2016 22:45 -0,8 C -1,3 C 89 % 1025,9 hPa 0,0 mm 0,0 km/h (0 Bft) S-SO 157 -2,4 C 0,0 km/h (0 Bft)
05.02.2016 22:49 -0,6 C -1,1 C 89 % 1025,9 hPa 0,0 mm 0,0 km/h (0 Bft) O-SO 112 -2,2 C 0,0 km/h (0 Bft)
05.02.2016 22:51 -0,6 C -1,1 C 89 % 1025,9 hPa 0,0 mm 0,0 km/h (0 Bft) O-SO 112 -2,2 C 0,0 km/h (0 Bft)
05.02.2016 22:55 -0,8 C -1,2 C 89 % 1025,9 hPa 0,0 mm 0,0 km/h (0 Bft) S 180 -2,4 C 0,0 km/h (0 Bft)
05.02.2016 23:00 -0,7 C -1,1 C 89 % 1025,9 hPa 0,0 mm 0,0 km/h (0 Bft) NW 315 -2,3 C 0,0 km/h (0 Bft)
05.02.2016 23:05 -1,0 C -1,3 C 89 % 1025,7 hPa 0,0 mm 0,0 km/h (0 Bft) NW 315 -2,6 C 0,0 km/h (0 Bft)
05.02.2016 23:10 -1,3 C -1,6 C 89 % 1025,7 hPa 0,0 mm 0,0 km/h (0 Bft) W 270 -2,9 C 0,0 km/h (0 Bft)
05.02.2016 23:15 -1,3 C -1,6 C 89 % 1025,7 hPa 0,0 mm 0,0 km/h (0 Bft) O-NO 67 -2,9 C 0,0 km/h (0 Bft)
05.02.2016 23:20 -1,3 C -1,6 C 89 % 1025,7 hPa 0,0 mm 0,0 km/h (0 Bft) SO 135 -2,9 C 0,0 km/h (0 Bft)
05.02.2016 23:25 -1,4 C -1,7 C 89 % 1025,6 hPa 0,0 mm 0,0 km/h (0 Bft) W-NW 292 -3,0 C 0,0 km/h (0 Bft)
05.02.2016 23:30 -0,9 C -1,3 C 89 % 1025,6 hPa 0,0 mm 0,0 km/h (0 Bft) W-SW 247 -2,5 C 0,0 km/h (0 Bft)
05.02.2016 23:35 -0,5 C -1,0 C 90 % 1025,6 hPa 0,0 mm 0,0 km/h (0 Bft) W 270 -1,9 C 0,0 km/h (0 Bft)
05.02.2016 23:40 -0,7 C -1,1 C 90 % 1025,6 hPa 0,0 mm 0,0 km/h (0 Bft) W-NW 292 -2,1 C 0,0 km/h (0 Bft)
05.02.2016 23:45 -0,6 C -1,0 C 90 % 1025,6 hPa 0,0 mm 0,0 km/h (0 Bft) O-SO 112 -2,0 C 0,0 km/h (0 Bft)
05.02.2016 23:50 -0,6 C -0,9 C 90 % 1025,6 hPa 0,0 mm 0,0 km/h (0 Bft) N-NW 337 -2,0 C 0,0 km/h (0 Bft)
05.02.2016 23:55 -0,8 C -1,1 C 90 % 1025,6 hPa 0,0 mm 0,0 km/h (0 Bft) W-NW 292 -2,2 C 0,0 km/h (0 Bft)
_ Min-Zeit 23:25 23:25 15:55 00:40 - 23:55 - - 23:25 23:55
Minimum _ -1,4 C -1,7 C 71 % 1022,7 hPa - 0,0 km/h (0 Bft) - - -3,0 C 0,0 km/h (0 Bft)
_ Max-Zeit 15:50 13:30 23:55 11:20 06:35 00:20 - - 15:10 00:25
Maximum _ 6,2 C 7,7 C 90 % 1030,6 hPa 0,7 mm 17,1 km/h
NW (3 Bft)
- - 1,6 C 38,8 km/h
W (5 Bft)
Durchschnitt _ 2,2 C 2,1 C 84 % 1027,4 hPa #2,1 mm 5,4 km/h (1 Bft) W - -0,3 C 7,3 km/h (2 Bft)